Clayton, NM

12:45 AM MDT on October 18, 2019 (GMT -0600)
Clayton Municipal

Weather History for KCAO - September, 2019

Change the Weather History Date:

Monday, September 23, 2019

  Actual Average Record
Temperature  
Mean Temperature 69 °F 63 °F  
Max Temperature 85 °F 77 °F 94 °F (1898)
Min Temperature 52 °F 49 °F 34 °F (1970)
Degree Days  
Heating Degree Days 0 4  
Month to date heating degree days 2 43  
Since 1 July heating degree days 5 49  
Cooling Degree Days 4 2  
Month to date cooling degree days 195 93  
Year to date cooling degree days 1086 890  
Growing Degree Days 18 (Base 50)    
Moisture  
Dew Point 47 °F    
Average Humidity 58    
Maximum Humidity 96    
Minimum Humidity 20    
Precipitation  
Precipitation 0.00 in 0.05 in 1.39 in (2015)
Month to date precipitation 0.36 1.34  
Year to date precipitation 12.44 13.54  
Sea Level Pressure  
Sea Level Pressure 29.97 in    
Wind  
Wind Speed 12 mph (SSW)    
Max Wind Speed 26 mph    
Max Gust Speed 34 mph    
Visibility 10 miles    
Events      
T = Trace of Precipitation, MM = Missing Value Source: NWS Daily Summary

Daily Weather History Graph

Daily Weather History Graph

Search for Another Location

Airport or City:

Astronomy

Sep. 23, 2019 Rise Set
Actual Time 6:41 AM MDT 6:48 PM MDT
Civil Twilight 6:15 AM MDT 7:13 PM MDT
Nautical Twilight 5:45 AM MDT 7:43 PM MDT
Astronomical Twilight 5:14 AM MDT 8:14 PM MDT
Moon 12:37 AM MDT (9/23) 3:33 PM MDT (9/23)
Length of Visible Light 12h 58m
Length of Day
12h 07m
Waning Crescent, 32% of the Moon is Illuminated
Sep 23
Waning Crescent
Sep 28
New
Oct 5
First Quarter
Oct 13
Full
Oct 21
Last Quarter

Hourly Weather History & Observations

Time (MDT) Temp. Dew Point Humidity Pressure Visibility Wind Dir Wind Speed Gust Speed Precip Events Conditions
12:55 AM 55.9 °F 48.9 °F 77% 30.03 in 10.0 mi SSW 9.2 mph - N/A   Clear
1:55 AM 55.0 °F 48.9 °F 80% 30.01 in 10.0 mi WSW 6.9 mph - N/A   Clear
2:55 AM 55.0 °F 48.9 °F 80% 30.00 in 10.0 mi SW 9.2 mph - N/A   Clear
3:55 AM 54.0 °F 50.0 °F 86% 30.01 in 10.0 mi WSW 8.1 mph - N/A   Clear
4:55 AM 54.0 °F 51.1 °F 90% 30.01 in 10.0 mi SW 5.8 mph - N/A   Clear
5:55 AM 53.1 °F 51.1 °F 93% 30.02 in 10.0 mi SW 5.8 mph - N/A   Clear
6:55 AM 52.0 °F 50.0 °F 93% 30.07 in 10.0 mi WSW 6.9 mph - N/A   Clear
7:55 AM 55.0 °F 52.0 °F 89% 30.08 in 10.0 mi SW 6.9 mph - N/A   Clear
8:55 AM 62.1 °F 54.0 °F 75% 30.07 in 10.0 mi SSW 11.5 mph - N/A   Clear
9:55 AM 68.0 °F 51.1 °F 55% 30.05 in 10.0 mi SW 13.8 mph 18.4 mph N/A   Clear
10:55 AM 73.9 °F 46.0 °F 37% 30.03 in 10.0 mi SSW 12.7 mph 20.7 mph N/A   Clear
11:55 AM 77.0 °F 45.0 °F 32% 29.99 in 10.0 mi South 16.1 mph 23.0 mph N/A   Clear
12:55 PM 82.0 °F 43.0 °F 25% 29.96 in 10.0 mi SSW 17.3 mph 27.6 mph N/A   Clear
1:55 PM 82.9 °F 41.0 °F 23% 29.93 in 10.0 mi SSW 21.9 mph 34.5 mph N/A   Clear
2:55 PM 84.0 °F 39.9 °F 21% 29.91 in 10.0 mi SSW 23.0 mph 29.9 mph N/A   Clear
3:55 PM 84.0 °F 39.9 °F 21% 29.90 in 10.0 mi SSW 16.1 mph 25.3 mph N/A   Clear
4:55 PM 82.9 °F 41.0 °F 23% 29.86 in 10.0 mi South 17.3 mph - N/A   Clear
5:55 PM 81.0 °F 41.0 °F 24% 29.88 in 10.0 mi South 17.3 mph - N/A   Clear
6:55 PM 72.0 °F 41.0 °F 33% 29.91 in 10.0 mi South 11.5 mph - N/A   Clear
7:55 PM 64.9 °F 42.1 °F 43% 29.93 in 10.0 mi South 9.2 mph - N/A   Partly Cloudy
9:55 PM 64.9 °F 52.0 °F 63% 29.91 in 10.0 mi South 15.0 mph - N/A   Clear
10:55 PM 63.0 °F 54.0 °F 72% 29.91 in 10.0 mi SSW 13.8 mph - N/A   Clear
11:55 PM 62.1 °F 55.9 °F 80% 29.91 in 10.0 mi SSW 11.5 mph - N/A   Clear